Weather History for Yuma MCAS, AZ

Change the Weather History Date:

Friday, April 4, 2014

  Actual Average Record
Temperature  
Mean Temperature 67 °F 70 °F  
Max Temperature 81 °F 84 °F 104 °F (1961)
Min Temperature 53 °F 57 °F 41 °F (1945)
Degree Days  
Heating Degree Days 0 1  
Month to date heating degree days 5 4  
Since 1 July heating degree days 370 677  
Cooling Degree Days 2 6  
Month to date cooling degree days 3 23  
Year to date cooling degree days 302 176  
Growing Degree Days 16 (Base 50)    
Moisture  
Dew Point 26 °F    
Average Humidity 29    
Maximum Humidity 46    
Minimum Humidity 11    
Precipitation  
Precipitation 0.00 in 0.01 in 0.29 in (1951)
Month to date precipitation 0.00 0.03  
Year to date precipitation 0.07 1.12  
Sea Level Pressure  
Sea Level Pressure 29.88 in    
Wind  
Wind Speed 6 mph (WNW)    
Max Wind Speed 20 mph    
Max Gust Speed 27 mph    
Visibility 10 miles    
Events      
T = Trace of Precipitation, MM = Missing Value Source: NWS Daily Summary

Daily Weather History Graph

Daily Weather History Graph

Search for Another Location

Airport:

Trip Planner

Search our weather history database for the weather conditions in past years. The results will help you decide how hot, cold, wet, or windy it might be!

Date:

Astronomy

Apr. 04, 2014 Rise Set
Actual Time 6:22 AM MST 7:00 PM MST
Civil Twilight 5:57 AM MST 7:25 PM MST
Nautical Twilight 5:28 AM MST 7:54 PM MST
Astronomical Twilight 4:58 AM MST 8:24 PM MST
Moon 9:54 AM MST (4/4) No Moon Set
Length of Visible Light 13h 27m
Length of Day
12h 38m
Waxing Crescent, 26% of the Moon is Illuminated
Apr 4
Waxing Crescent
Apr 7
First Quarter
Apr 15
Full
Apr 22
Last Quarter
Apr 28
New

Hourly Weather History & Observations

Time (MST) Temp. Dew Point Humidity Pressure Visibility Wind Dir Wind Speed Gust Speed Precip Events Conditions
12:57 AM 57.0 °F 30.9 °F 37% 29.96 in 10.0 mi South 3.5 mph - N/A   Clear
1:57 AM 57.0 °F 28.9 °F 34% 29.95 in 10.0 mi Calm Calm - N/A   Clear
2:57 AM 55.9 °F 30.0 °F 37% 29.94 in 10.0 mi Calm Calm - N/A   Clear
3:57 AM 55.0 °F 28.0 °F 35% 29.93 in 10.0 mi Calm Calm - N/A   Clear
4:57 AM 54.0 °F 33.1 °F 45% 29.92 in 10.0 mi NE 3.5 mph - N/A   Clear
5:57 AM 54.0 °F 32.0 °F 43% 29.93 in 10.0 mi ENE 3.5 mph - N/A   Partly Cloudy
6:57 AM 55.9 °F 30.0 °F 37% 29.93 in 10.0 mi NE 3.5 mph - N/A   Partly Cloudy
7:57 AM 61.0 °F 28.9 °F 30% 29.94 in 10.0 mi Calm Calm - N/A   Scattered Clouds
8:57 AM 68.0 °F 28.0 °F 22% 29.94 in 10.0 mi NNE 3.5 mph - N/A   Scattered Clouds
9:57 AM 72.0 °F 27.0 °F 19% 29.94 in 10.0 mi Calm Calm - N/A   Mostly Cloudy
10:57 AM 75.0 °F 28.0 °F 18% 29.94 in 10.0 mi West 6.9 mph - N/A   Mostly Cloudy
11:57 AM 78.1 °F 26.1 °F 15% 29.92 in 10.0 mi West 8.1 mph - N/A   Mostly Cloudy
12:57 PM 77.0 °F 23.0 °F 13% 29.90 in 10.0 mi SW 8.1 mph - N/A   Mostly Cloudy
1:57 PM 78.1 °F 19.0 °F 11% 29.86 in 10.0 mi Variable 6.9 mph - N/A   Mostly Cloudy
2:57 PM 78.1 °F 21.0 °F 12% 29.84 in 10.0 mi Calm Calm - N/A   Mostly Cloudy
3:57 PM 79.0 °F 21.0 °F 12% 29.82 in 10.0 mi WNW 9.2 mph - N/A   Mostly Cloudy
4:57 PM 79.0 °F 23.0 °F 13% 29.80 in 10.0 mi WNW 8.1 mph - N/A   Mostly Cloudy
5:57 PM 77.0 °F 21.9 °F 13% 29.79 in 10.0 mi West 4.6 mph - N/A   Mostly Cloudy
6:57 PM 75.9 °F 26.1 °F 16% 29.79 in 10.0 mi WSW 8.1 mph - N/A   Mostly Cloudy
7:57 PM 73.0 °F 26.1 °F 17% 29.80 in 10.0 mi WNW 12.7 mph - N/A   Mostly Cloudy
8:57 PM 71.1 °F 19.9 °F 14% 29.81 in 10.0 mi WNW 16.1 mph 24.2 mph N/A   Mostly Cloudy
9:57 PM 68.0 °F 24.1 °F 19% 29.82 in 10.0 mi WNW 16.1 mph 26.5 mph N/A   Mostly Cloudy
10:57 PM 64.9 °F 27.0 °F 24% 29.82 in 10.0 mi WNW 12.7 mph - N/A   Clear
11:57 PM 64.0 °F 28.0 °F 26% 29.83 in 10.0 mi NW 13.8 mph 19.6 mph N/A   Clear